Surface/Precipitation History
05/25/2018 23:18  to  5/26/2018 23:18
Change End Date:
Date/Time
(MDT)
Sf
Temp Chem Water Layer Surface Precipitation
Sfc Pvt Sub Frz Factor Pct Dpth DpthThk IcePct Cond Salin FI Type Intens Accum Rate
05/26/2018 23:13 Wet 46.0F - 60F 32F 5 0% 0.00 in - 0% 0 mhos 1 - None None - -
05/26/2018 23:06 Wet 46.2F - 60F 32F 5 0% 0.00 in - 0% 0 mhos 1 - None None - -
05/26/2018 22:58 Wet 46.4F - 60F 32F 5 0% 0.30 in - 0% 0 mhos 0 - None None - -
05/26/2018 22:56 Wet 46.6F - 60F 32F 5 0% 0.30 in - 0% 0 mhos 0 - None None - -
05/26/2018 22:45 Wet 47.1F - 60F 32F 5 0% 0.40 in - 0% 0 mhos 0 - None None - -
05/26/2018 22:43 Wet 47.3F - 60F 32F 5 0% 0.40 in - 0% 0 mhos 0 - None None - -
05/26/2018 22:35 Wet 47.7F - 60F 32F 5 0% 0.40 in - 0% 0 mhos 0 - None None - -
05/26/2018 22:28 Wet 47.5F - 60F 32F 5 0% 0.50 in - 0% 0 mhos 0 - None None - -
05/26/2018 22:25 Wet 47.3F - 60F 32F 5 0% 0.50 in - 0% 0 mhos 0 - None None - -
05/26/2018 22:15 Wet 47.3F - 60F 32F 5 0% 0.50 in - 0% 0 mhos 1 - None None - -
05/26/2018 22:12 Wet 47.3F - 60F 32F 5 0% 0.50 in - 0% 0 mhos 1 - None None - -
05/26/2018 22:05 Wet 47.5F - 60F 32F 5 0% 0.50 in - 0% 0 mhos 0 - None None - -
05/26/2018 21:56 Wet 47.8F - 60F 32F 5 0% 0.50 in - 0% 0 mhos 0 - None None - -
05/26/2018 21:55 Wet 47.8F - 60F 32F 5 0% 0.50 in - 0% 0 mhos 0 - None None - -
05/26/2018 21:45 Wet 48.2F - 60F 32F 5 0% 0.50 in - 0% 0 mhos 0 - None None - -
Date/Time
(MDT)
Sf
Temp Chem Water Layer Surface Precipitation
Sfc Pvt Sub Frz Factor Pct Dpth DpthThk IcePct Cond Salin FI Type Intens Accum Rate
05/26/2018 21:40 Wet 48.6F - 60F 32F 5 0% 0.50 in - 0% 0 mhos 0 - None None - -
05/26/2018 21:35 Wet 48.7F - 60F 32F 5 0% 0.50 in - 0% 0 mhos 0 - None None - -
05/26/2018 21:26 Wet 48.9F - 60F 32F 5 0% 0.50 in - 0% 0 mhos 0 - None None - -
05/26/2018 21:25 Wet 49.1F - 60F 32F 5 0% 0.50 in - 0% 0 mhos 0 - None None - -
05/26/2018 21:15 Wet 49.6F - 60F 32F 5 0% 0.50 in - 0% 0 mhos 1 - None None - -
05/26/2018 21:12 Wet 49.8F - 60F 32F 5 0% 0.40 in - 0% 0 mhos 1 - None None - -
05/26/2018 21:05 Wet 50.4F - 60F 32F 5 0% 0.40 in - 0% 0 mhos 1 - None None - -
05/26/2018 20:57 Wet 50.9F - 60F 32F 5 0% 0.50 in - 0% 0 mhos 1 - None None - -
05/26/2018 20:55 Wet 51.1F - 60F 32F 5 0% 0.60 in - 0% 0 mhos 1 - None None - -
05/26/2018 20:45 Wet 51.6F - 60F 32F 25 0% 0.00 in - 0% 0 mhos 1 - None None - -
05/26/2018 20:43 Wet 51.4F - 60F 32F 25 0% 0.00 in - 0% 0 mhos 1 - None None - -
05/26/2018 20:35 Wet 51.8F - 60F 32F 25 0% 0.00 in - 0% 0 mhos 1 - None None - -
05/26/2018 20:27 Wet 52.5F - 60F 32F 30 0% 0.00 in - 0% 0 mhos 1 - None None - -
05/26/2018 20:25 Wet 52.5F - 60F 32F 30 0% 0.00 in - 0% 0 mhos 1 - None None - -
05/26/2018 20:15 Wet 53.1F - 60F 32F 35 0% 0.00 in - 0% 0 mhos 1 - None None - -
Date/Time
(MDT)
Sf
Temp Chem Water Layer Surface Precipitation
Sfc Pvt Sub Frz Factor Pct Dpth DpthThk IcePct Cond Salin FI Type Intens Accum Rate
05/26/2018 20:12 Wet 53.1F - 60F 32F 40 0% 0.00 in - 0% 0 mhos 1 - None None - -
05/26/2018 20:05 Wet 53.8F - 60F 32F 40 0% 0.00 in - 0% 0 mhos 1 - None None - -
05/26/2018 20:00 Wet 53.8F - 60F 32F 30 0% 0.00 in - 0% 0 mhos 1 - None None - -
05/26/2018 19:55 Wet 54.0F - 60F 32F 45 0% 0.00 in - 0% 0 mhos 1 - None None - -
05/26/2018 19:45 Wet 54.1F - 60F 32F 95 0% 0.00 in - 0% 0 mhos 1 - None None - -
05/26/2018 19:43 Wet 54.3F - 60F 32F 95 0% 0.00 in - 0% 0 mhos 1 - None None - -
05/26/2018 19:35 Wet 54.3F - 60F 32F 95 0% 0.00 in - 0% 0 mhos 1 - Yes - - -
05/26/2018 19:28 Wet 54.5F - 60F 32F 95 0% 0.00 in - 0% 0 mhos 1 - Yes - - -
05/26/2018 19:24 Wet 54.3F - 60F 32F 95 0% 0.00 in - 0% 0 mhos 1 - Yes - - -
05/26/2018 19:14 Wet 54.1F - 60F 32F 95 0% 0.00 in - 0% 0 mhos 1 - Yes - - -
05/26/2018 19:12 Wet 54.1F - 60F 32F 95 0% 0.00 in - 0% 0 mhos 1 - Yes - - -
05/26/2018 19:04 Wet 53.8F - 60F 32F 95 0% 0.00 in - 0% 0 mhos 1 - Yes - - -
05/26/2018 18:57 Wet 53.8F - 60F 32F 95 0% 0.00 in - 0% 0 mhos 1 - Yes - - -
05/26/2018 18:54 Wet 53.8F - 60F 32F 95 0% 0.00 in - 0% 0 mhos 0 - Yes - - -
05/26/2018 18:44 Wet 53.8F - 60F 32F 25 0% 0.00 in - 0% 0 mhos 0 - Yes - - -
Date/Time
(MDT)
Sf
Temp Chem Water Layer Surface Precipitation
Sfc Pvt Sub Frz Factor Pct Dpth DpthThk IcePct Cond Salin FI Type Intens Accum Rate
05/26/2018 18:43 Wet 53.8F - 60F 32F 10 0% 0.00 in - 0% 0 mhos 0 - Yes - - -
05/26/2018 18:34 Wet 54.5F - 60F 32F 10 0% 0.00 in - 0% 0 mhos 0 - Yes - - -
05/26/2018 18:28 Wet 55.0F - 60F 32F 15 0% 0.00 in - 0% 0 mhos 0 - None None - -
05/26/2018 18:24 Wet 55.2F - 60F 32F 10 0% 0.00 in - 0% 0 mhos 0 - None None - -
05/26/2018 18:14 Wet 56.3F - 60F 32F 50 0% 0.00 in - 0% 0 mhos 0 - Yes - - -
05/26/2018 18:13 Wet 56.5F - 60F 32F 50 0% 0.00 in - 0% 0 mhos 0 - Yes - - -
05/26/2018 18:04 Wet 57.0F - 60F 32F 80 0% 0.00 in - 0% 0 mhos 0 - None None - -
05/26/2018 17:58 Wet 57.2F - 60F 32F 80 0% 0.00 in - 0% 0 mhos 0 - None None - -
05/26/2018 17:54 Wet 57.4F - 60F 32F 75 0% 0.00 in - 0% 0 mhos 0 - None None - -
05/26/2018 17:44 Wet 58.6F - 60F 32F 70 0% 0.00 in - 0% 0 mhos 0 - None None - -
05/26/2018 17:43 Wet 58.6F - 60F 32F 50 0% 0.00 in - 0% 0 mhos 0 - None None - -
05/26/2018 17:34 Wet 58.6F - 60F 32F 95 0% 0.00 in - 0% 0 mhos 1 - Yes - - -
05/26/2018 17:28 Wet 58.6F - 60F 32F 95 0% 0.00 in - 0% 0 mhos 0 - Yes - - -
05/26/2018 17:24 Wet 58.5F - 60F 32F 95 0% 0.00 in - 0% 0 mhos 1 - Yes - - -
05/26/2018 17:14 Wet 58.5F - 60F 32F 95 0% 0.00 in - 0% 0 mhos 0 - Yes - - -
Date/Time
(MDT)
Sf
Temp Chem Water Layer Surface Precipitation
Sfc Pvt Sub Frz Factor Pct Dpth DpthThk IcePct Cond Salin FI Type Intens Accum Rate
05/26/2018 17:12 Wet 58.6F - 60F 32F 65 0% 0.00 in - 0% 0 mhos 0 - Yes - - -
05/26/2018 17:04 Wet 58.6F - 60F 32F 30 0% 0.00 in - 0% 0 mhos 0 - Yes - - -
05/26/2018 16:57 Wet 60.1F - 60F 32F 50 0% 0.00 in - 0% 0 mhos 0 - Yes - - -
05/26/2018 16:54 Wet 60.8F - 60F 32F 5 0% 0.00 in - 0% 0 mhos 0 - Yes - - -
05/26/2018 16:44 Dry 61.3F - 60F - - - - - - 0 mhos 1 - None None - -
05/26/2018 16:42 Dry 61.2F - 60F - - - - - - 0 mhos 1 - None None - -
05/26/2018 16:34 Dry 61.7F - 60F - - - - - - 0 mhos 1 - None None - -
05/26/2018 16:27 Wet 62.1F - 60F 32F 5 0% 0.50 in - 0% 0 mhos 0 - None None - -
05/26/2018 16:24 Wet 62.4F - 59F 32F 15 0% 4.70 in - 0% 0 mhos 0 - None None - -
05/26/2018 16:13 Wet 62.6F - 59F 32F 20 0% 0.00 in - 0% 0 mhos 0 - Yes - - -
05/26/2018 16:12 Wet 62.4F - 59F 32F 20 0% 0.00 in - 0% 0 mhos 0 - Yes - - -
05/26/2018 16:03 Wet 62.2F - 59F 32F 10 0% 0.20 in - 0% 0 mhos 1 - Yes - - -
05/26/2018 15:57 Dry 63.5F - 59F - - - - - - 0 mhos 1 - Yes - - -
05/26/2018 15:53 Dry 63.3F - 59F - - - - - - 0 mhos 1 - None None - -
05/26/2018 15:43 Wet 64.6F - 59F 32F 10 0% 0.20 in - 0% 0 mhos 1 - None None - -
Date/Time
(MDT)
Sf
Temp Chem Water Layer Surface Precipitation
Sfc Pvt Sub Frz Factor Pct Dpth DpthThk IcePct Cond Salin FI Type Intens Accum Rate
05/26/2018 15:42 Wet 64.6F - 59F 32F 10 0% 0.10 in - 0% 0 mhos 1 - Yes - - -
05/26/2018 15:33 Wet 65.8F - 59F 32F 5 0% 0.00 in - 0% 0 mhos 0 - Yes - - -
05/26/2018 15:28 Dry 66.4F - 59F - - - - - - 0 mhos 0 - Yes - - -
05/26/2018 15:23 Dry 66.4F - 59F - - - - - - 0 mhos 0 - Yes - - -
05/26/2018 15:13 Dry 68.7F - 59F - - - - - - 0 mhos 0 - Yes - - -
05/26/2018 15:13 Dry 68.9F - 59F - - - - - - 0 mhos 0 - Yes - - -
05/26/2018 15:03 Dry 72.7F - 59F - - - - - - 0 mhos 0 - Yes - - -
05/26/2018 14:57 Dry 75.0F - 58F - - - - - - 0 mhos 0 - Yes - - -
05/26/2018 14:53 Dry 76.3F - 58F - - - - - - 0 mhos 0 - None None - -
05/26/2018 14:43 Dry 79.7F - 58F - - - - - - 0 mhos 0 - None None - -
05/26/2018 14:43 Dry 79.9F - 58F - - - - - - 0 mhos 0 - None None - -
05/26/2018 14:33 Dry 83.3F - 58F - - - - - - 0 mhos 0 - None None - -
05/26/2018 14:27 Dry 86.0F - 58F - - - - - - 0 mhos 0 - None None - -
05/26/2018 14:23 Dry 88.2F - 58F - - - - - - 0 mhos 0 - None None - -
05/26/2018 14:13 Dry 99.3F - 58F - - - - - - 0 mhos 0 - None None - -
Date/Time
(MDT)
Sf
Temp Chem Water Layer Surface Precipitation
Sfc Pvt Sub Frz Factor Pct Dpth DpthThk IcePct Cond Salin FI Type Intens Accum Rate
05/26/2018 14:13 Dry 99.3F - 58F - - - - - - 0 mhos 0 - None None - -
05/26/2018 14:03 Dry 88.7F - 58F - - - - - - 0 mhos 0 - None None - -
05/26/2018 13:58 Dry 93.4F - 58F - - - - - - 0 mhos 0 - None None - -
05/26/2018 13:53 Dry 91.2F - 58F - - - - - - 0 mhos 0 - None None - -
05/26/2018 13:43 Dry 88.2F - 58F - - - - - - 0 mhos 0 - None None - -
05/26/2018 13:43 Dry 88.2F - 58F - - - - - - 0 mhos 0 - None None - -
05/26/2018 13:33 Dry 86.4F - 58F - - - - - - 0 mhos 0 - None None - -
05/26/2018 13:28 Dry 91.0F - 58F - - - - - - 0 mhos 0 - None None - -
05/26/2018 13:23 Dry 88.0F - 58F - - - - - - 0 mhos 0 - None None - -
05/26/2018 13:13 Dry 86.7F - 58F - - - - - - 0 mhos 0 - None None - -
05/26/2018 13:12 Dry 87.4F - 58F - - - - - - 0 mhos 0 - None None - -
05/26/2018 13:03 Dry 91.6F - 58F - - - - - - 0 mhos 0 - None None - -
05/26/2018 12:58 Dry 88.2F - 57F - - - - - - 0 mhos 0 - None None - -
05/26/2018 12:53 Dry 91.6F - 57F - - - - - - 0 mhos 0 - None None - -
05/26/2018 12:43 Dry 93.0F - 57F - - - - - - 0 mhos 0 - None None - -
Date/Time
(MDT)
Sf
Temp Chem Water Layer Surface Precipitation
Sfc Pvt Sub Frz Factor Pct Dpth DpthThk IcePct Cond Salin FI Type Intens Accum Rate
05/26/2018 12:43 Dry 93.0F - 57F - - - - - - 0 mhos 0 - None None - -
05/26/2018 12:32 Dry 101.3F - 57F - - - - - - 0 mhos 0 - None None - -
05/26/2018 12:28 Dry 99.9F - 57F - - - - - - 0 mhos 0 - None None - -
05/26/2018 12:22 Dry 101.1F - 57F - - - - - - 0 mhos 0 - None None - -
05/26/2018 12:13 Dry 98.4F - 57F - - - - - - 0 mhos 0 - None None - -
05/26/2018 12:12 Dry 98.6F - 57F - - - - - - 0 mhos 0 - None None - -
05/26/2018 12:02 Dry 97.3F - 57F - - - - - - 0 mhos 0 - None None - -
05/26/2018 11:58 Dry 96.6F - 57F - - - - - - 0 mhos 0 - None None - -
05/26/2018 11:52 Dry 95.9F - 57F - - - - - - 0 mhos 0 - None None - -
05/26/2018 11:43 Dry 94.1F - 57F - - - - - - 0 mhos 0 - None None - -
05/26/2018 11:42 Dry 93.7F - 57F - - - - - - 0 mhos 0 - None None - -
05/26/2018 11:32 Dry 91.4F - 57F - - - - - - 0 mhos 0 - None None - -
05/26/2018 11:28 Dry 90.9F - 57F - - - - - - 0 mhos 0 - None None - -
05/26/2018 11:22 Dry 89.8F - 57F - - - - - - 0 mhos 0 - None None - -
05/26/2018 11:13 Dry 88.2F - 58F - - - - - - 0 mhos 0 - None None - -
Date/Time
(MDT)
Sf
Temp Chem Water Layer Surface Precipitation
Sfc Pvt Sub Frz Factor Pct Dpth DpthThk IcePct Cond Salin FI Type Intens Accum Rate
05/26/2018 11:12 Dry 88.0F - 58F - - - - - - 0 mhos 0 - None None - -
05/26/2018 11:02 Dry 86.4F - 58F - - - - - - 0 mhos 0 - None None - -
05/26/2018 10:58 Dry 85.1F - 58F - - - - - - 0 mhos 0 - None None - -
05/26/2018 10:52 Dry 83.8F - 58F - - - - - - 0 mhos 0 - None None - -
05/26/2018 10:43 Dry 81.7F - 58F - - - - - - 0 mhos 0 - None None - -
05/26/2018 10:42 Dry 81.7F - 58F - - - - - - 0 mhos 0 - None None - -
05/26/2018 10:32 Dry 78.6F - 58F - - - - - - 0 mhos 0 - None None - -
05/26/2018 10:28 Dry 77.7F - 58F - - - - - - 0 mhos 0 - None None - -
05/26/2018 10:22 Dry 75.6F - 58F - - - - - - 0 mhos 0 - None None - -
05/26/2018 10:13 Dry 72.3F - 58F - - - - - - 0 mhos 0 - None None - -
05/26/2018 10:12 Dry 71.8F - 58F - - - - - - 0 mhos 0 - None None - -
05/26/2018 10:02 Dry 63.9F - 58F - - - - - - 0 mhos 0 - None None - -
05/26/2018 09:58 Dry 59.0F - 58F - - - - - - 0 mhos 0 - None None - -
05/26/2018 09:52 Dry 58.3F - 58F - - - - - - 0 mhos 0 - None None - -
05/26/2018 09:46 Dry 57.0F - 58F - - - - - - 0 mhos 0 - None None - -
Date/Time
(MDT)
Sf
Temp Chem Water Layer Surface Precipitation
Sfc Pvt Sub Frz Factor Pct Dpth DpthThk IcePct Cond Salin FI Type Intens Accum Rate
05/26/2018 09:42 Dry 57.0F - 58F - - - - - - 0 mhos 0 - None None - -
05/26/2018 09:32 Dry 58.6F - 58F - - - - - - 0 mhos 0 - None None - -
05/26/2018 09:28 Dry 59.7F - 58F - - - - - - 0 mhos 0 - None None - -
05/26/2018 09:22 Dry 62.8F - 58F - - - - - - 0 mhos 0 - None None - -
05/26/2018 09:13 Dry 59.4F - 58F - - - - - - 0 mhos 0 - None None - -
05/26/2018 09:12 Dry 58.5F - 58F - - - - - - 0 mhos 0 - None None - -
05/26/2018 09:02 Dry 54.7F - 58F - - - - - - 0 mhos 0 - None None - -
05/26/2018 08:58 Dry 53.6F - 58F - - - - - - 0 mhos 0 - None None - -
05/26/2018 08:52 Dry 52.2F - 58F - - - - - - 0 mhos 0 - None None - -
05/26/2018 08:43 Dry 50.0F - 58F - - - - - - 0 mhos 0 - None None - -
05/26/2018 08:42 Dry 49.8F - 58F - - - - - - 0 mhos 0 - None None - -
05/26/2018 08:31 Dry 48.9F - 59F - - - - - - 0 mhos 0 - None None - -
05/26/2018 08:27 Dry 48.2F - 59F - - - - - - 0 mhos 0 - None None - -
05/26/2018 08:21 Dry 48.0F - 59F - - - - - - 0 mhos 0 - None None - -
05/26/2018 08:12 Dry 47.7F - 59F - - - - - - 0 mhos 0 - None None - -
Date/Time
(MDT)
Sf
Temp Chem Water Layer Surface Precipitation
Sfc Pvt Sub Frz Factor Pct Dpth DpthThk IcePct Cond Salin FI Type Intens Accum Rate
05/26/2018 08:11 Dry 47.7F - 59F - - - - - - 0 mhos 0 - None None - -
05/26/2018 08:01 Dry 47.5F - 59F - - - - - - 0 mhos 0 - None None - -
05/26/2018 07:57 Dry 47.3F - 59F - - - - - - 0 mhos 0 - None None - -
05/26/2018 07:51 Dry 47.1F - 59F - - - - - - 0 mhos 0 - None None - -
05/26/2018 07:42 Dry 46.9F - 59F - - - - - - 0 mhos 0 - None None - -
05/26/2018 07:41 Dry 46.9F - 59F - - - - - - 0 mhos 0 - None None - -
05/26/2018 07:31 Dry 46.6F - 59F - - - - - - 0 mhos 0 - None None - -
05/26/2018 07:27 Dry 46.4F - 59F - - - - - - 0 mhos 0 - None None - -
05/26/2018 07:21 Dry 46.4F - 59F - - - - - - 0 mhos 0 - None None - -
05/26/2018 07:12 Dry 46.2F - 59F - - - - - - 0 mhos 0 - None None - -
05/26/2018 07:11 Dry 46.2F - 59F - - - - - - 0 mhos 0 - None None - -
05/26/2018 07:01 Dry 45.9F - 59F - - - - - - 0 mhos 0 - None None - -
05/26/2018 06:57 Dry 45.9F - 59F - - - - - - 0 mhos 0 - None None - -
05/26/2018 06:51 Dry 45.7F - 59F - - - - - - 0 mhos 0 - None None - -
05/26/2018 06:43 Dry 45.5F - 60F - - - - - - 0 mhos 0 - None None - -
Date/Time
(MDT)
Sf
Temp Chem Water Layer Surface Precipitation
Sfc Pvt Sub Frz Factor Pct Dpth DpthThk IcePct Cond Salin FI Type Intens Accum Rate
05/26/2018 06:41 Dry 45.5F - 60F - - - - - - 0 mhos 0 - None None - -
05/26/2018 06:31 Dry 45.3F - 60F - - - - - - 0 mhos 0 - None None - -
05/26/2018 06:27 Dry 45.3F - 60F - - - - - - 0 mhos 0 - None None - -
05/26/2018 06:21 Dry 45.1F - 60F - - - - - - 0 mhos 1 - None None - -
05/26/2018 06:12 Dry 45.1F - 60F - - - - - - 0 mhos 1 - None None - -
05/26/2018 06:11 Dry 45.0F - 60F - - - - - - 0 mhos 1 - None None - -
05/26/2018 06:01 Dry 45.0F - 60F - - - - - - 0 mhos 1 - None None - -
05/26/2018 05:57 Dry 45.1F - 60F - - - - - - 0 mhos 0 - None None - -
05/26/2018 05:51 Dry 45.1F - 60F - - - - - - 0 mhos 0 - None None - -
05/26/2018 05:42 Dry 45.1F - 60F - - - - - - 0 mhos 0 - None None - -
05/26/2018 05:41 Dry 45.1F - 60F - - - - - - 0 mhos 0 - None None - -
05/26/2018 05:31 Dry 45.3F - 60F - - - - - - 0 mhos 0 - None None - -
05/26/2018 05:25 Dry 45.5F - 60F - - - - - - 0 mhos 0 - None None - -
05/26/2018 05:20 Dry 45.5F - 60F - - - - - - 0 mhos 0 - None None - -
05/26/2018 05:10 Dry 46.0F - 60F - - - - - - 0 mhos 0 - None None - -
Date/Time
(MDT)
Sf
Temp Chem Water Layer Surface Precipitation
Sfc Pvt Sub Frz Factor Pct Dpth DpthThk IcePct Cond Salin FI Type Intens Accum Rate
05/26/2018 05:10 Dry 46.0F - 60F - - - - - - 0 mhos 0 - None None - -
05/26/2018 05:00 Dry 46.0F - 60F - - - - - - 0 mhos 0 - None None - -
05/26/2018 04:57 Dry 46.0F - 60F - - - - - - 0 mhos 1 - None None - -
05/26/2018 04:50 Dry 46.2F - 60F - - - - - - 0 mhos 1 - None None - -
05/26/2018 04:43 Dry 46.2F - 60F - - - - - - 0 mhos 1 - None None - -
05/26/2018 04:40 Dry 46.4F - 61F - - - - - - 0 mhos 1 - None None - -
05/26/2018 04:30 Dry 46.4F - 61F - - - - - - 0 mhos 1 - None None - -
05/26/2018 04:28 Dry 46.4F - 61F - - - - - - 0 mhos 1 - None None - -
05/26/2018 04:20 Dry 46.4F - 61F - - - - - - 0 mhos 1 - None None - -
05/26/2018 04:13 Dry 46.8F - 61F - - - - - - 0 mhos 1 - None None - -
05/26/2018 04:10 Dry 46.8F - 61F - - - - - - 0 mhos 1 - None None - -
05/26/2018 04:00 Dry 46.9F - 61F - - - - - - 0 mhos 1 - None None - -
05/26/2018 03:58 Dry 46.9F - 61F - - - - - - 0 mhos 1 - None None - -
05/26/2018 03:50 Dry 47.3F - 61F - - - - - - 0 mhos 1 - None None - -
05/26/2018 03:43 Dry 47.5F - 61F - - - - - - 0 mhos 1 - None None - -
Date/Time
(MDT)
Sf
Temp Chem Water Layer Surface Precipitation
Sfc Pvt Sub Frz Factor Pct Dpth DpthThk IcePct Cond Salin FI Type Intens Accum Rate
05/26/2018 03:40 Dry 47.5F - 61F - - - - - - 0 mhos 1 - None None - -
05/26/2018 03:30 Dry 47.7F - 61F - - - - - - 0 mhos 1 - None None - -
05/26/2018 03:28 Dry 47.7F - 61F - - - - - - 0 mhos 1 - None None - -
05/26/2018 03:20 Dry 47.8F - 61F - - - - - - 0 mhos 1 - None None - -
05/26/2018 03:14 Dry 48.0F - 61F - - - - - - 0 mhos 1 - None None - -
05/26/2018 03:10 Dry 48.0F - 61F - - - - - - 0 mhos 1 - None None - -
05/26/2018 03:00 Dry 48.4F - 61F - - - - - - 0 mhos 1 - None None - -
05/26/2018 02:58 Dry 48.4F - 61F - - - - - - 0 mhos 1 - None None - -
05/26/2018 02:50 Dry 48.7F - 61F - - - - - - 0 mhos 1 - None None - -
05/26/2018 02:43 Trace Moisture 48.9F - 62F - 5 - - - - 0 mhos 1 - None None - -
05/26/2018 02:40 Trace Moisture 48.9F - 62F - 5 - - - - 0 mhos 1 - None None - -
05/26/2018 02:30 Wet 49.1F - 62F 32F 5 0% 0.00 in - 0% 0 mhos 1 - None None - -
05/26/2018 02:28 Wet 49.3F - 62F 32F 5 0% 0.00 in - 0% 0 mhos 1 - None None - -
05/26/2018 02:20 Wet 49.6F - 62F 32F 5 0% 0.00 in - 0% 0 mhos 1 - None None - -
05/26/2018 02:13 Wet 49.8F - 62F 32F 5 0% 0.00 in - 0% 0 mhos 1 - None None - -
Date/Time
(MDT)
Sf
Temp Chem Water Layer Surface Precipitation
Sfc Pvt Sub Frz Factor Pct Dpth DpthThk IcePct Cond Salin FI Type Intens Accum Rate
05/26/2018 02:10 Wet 50.2F - 62F 32F 5 0% 0.00 in - 0% 0 mhos 1 - None None - -
05/26/2018 02:00 Wet 50.4F - 62F 32F 5 0% 0.00 in - 0% 0 mhos 1 - None None - -
05/26/2018 01:58 Wet 50.5F - 62F 32F 5 0% 0.00 in - 0% 0 mhos 1 - None None - -
05/26/2018 01:50 Wet 50.5F - 62F 32F 5 0% 0.00 in - 0% 0 mhos 1 - None None - -
05/26/2018 01:43 Wet 50.5F - 62F 32F 5 0% 0.00 in - 0% 0 mhos 1 - None None - -
05/26/2018 01:39 Wet 50.7F - 62F 32F 5 0% 0.00 in - 0% 0 mhos 1 - None None - -
05/26/2018 01:29 Wet 51.1F - 62F 32F 5 0% 0.00 in - 0% 0 mhos 1 - None None - -
05/26/2018 01:28 Wet 51.3F - 62F 32F 5 0% 0.00 in - 0% 0 mhos 1 - None None - -
05/26/2018 01:19 Wet 51.4F - 62F 32F 5 0% 0.00 in - 0% 0 mhos 1 - None None - -
05/26/2018 01:13 Wet 51.6F - 62F 32F 5 0% 0.00 in - 0% 0 mhos 1 - None None - -
05/26/2018 01:09 Wet 52.0F - 62F 32F 5 0% 0.00 in - 0% 0 mhos 1 - None None - -
05/26/2018 00:59 Wet 52.3F - 62F 32F 5 0% 0.00 in - 0% 0 mhos 1 - None None - -
05/26/2018 00:58 Wet 52.5F - 62F 32F 5 0% 0.00 in - 0% 0 mhos 1 - None None - -
05/26/2018 00:49 Wet 52.3F - 62F 32F 5 0% 0.00 in - 0% 0 mhos 1 - None None - -
05/26/2018 00:43 Wet 52.3F - 62F 32F 5 0% 0.00 in - 0% 0 mhos 1 - None None - -
Date/Time
(MDT)
Sf
Temp Chem Water Layer Surface Precipitation
Sfc Pvt Sub Frz Factor Pct Dpth DpthThk IcePct Cond Salin FI Type Intens Accum Rate
05/26/2018 00:39 Wet 52.3F - 62F 32F 5 0% 0.00 in - 0% 0 mhos 1 - None None - -
05/26/2018 00:29 Wet 52.0F - 62F 32F 5 0% 0.00 in - 0% 0 mhos 1 - None None - -
05/26/2018 00:28 Wet 52.0F - 62F 32F 5 0% 0.00 in - 0% 0 mhos 1 - None None - -
05/26/2018 00:19 Wet 52.0F - 63F 32F 5 0% 0.00 in - 0% 0 mhos 1 - None None - -
05/26/2018 00:13 Wet 52.0F - 63F 32F 5 0% 0.20 in - 0% 0 mhos 1 - None None - -
05/26/2018 00:09 Wet 52.2F - 63F 32F 5 0% 0.20 in - 0% 0 mhos 1 - None None - -
05/25/2018 23:59 Wet 52.3F - 63F 32F 5 0% 0.20 in - 0% 0 mhos 1 - None None - -
05/25/2018 23:58 Wet 52.5F - 63F 32F 5 0% 0.20 in - 0% 0 mhos 1 - None None - -
05/25/2018 23:49 Wet 52.9F - 63F 32F 5 0% 0.20 in - 0% 0 mhos 1 - None None - -
05/25/2018 23:43 Wet 53.1F - 63F 32F 5 0% 0.30 in - 0% 0 mhos 1 - None None - -
05/25/2018 23:39 Wet 53.4F - 63F 32F 5 0% 0.30 in - 0% 0 mhos 1 - None None - -
05/25/2018 23:29 Wet 53.8F - 63F 32F 10 0% 0.30 in - 0% 0 mhos 1 - None None - -
05/25/2018 23:28 Wet 53.8F - 63F 32F 10 0% 0.30 in - 0% 0 mhos 1 - None None - -
05/25/2018 23:19 Wet 54.3F - 63F 32F 10 0% 0.40 in - 0% 0 mhos 1 - Yes - - -
Change End Date:

Copyright © 1998-2015 Vaisala, Inc.
All Rights Reserved
Send comments about the data to:
SCAN Web ® is a registered trademark of Vaisala, Inc.
SCAN Web Version 6.0